This demonstration page uses our WeatherBlox Daily Observations layout. Learn more.

36.17497, -115.13722

Hourly Observations for February 14, 2016

Temp ( °F °C ) Dew Point ( °F °C ) Humidity (%) Winds ( mph kmh ) Pressure ( in mb ) Visibility ( mi km ) Precip ( " mm )
12:53 am 00:53 Clear 60 15.6 17 -8.3 19 19 N 13 20 30.16 1021 10 16.0934 0 0
1:53 am 01:53 Clear 59 15 16 -8.9 18 18 N 16 26 30.14 1021 10 16.0934 0 0
2:53 am 02:53 Clear 57 13.9 17 -8.3 21 21 NNW 9 15 30.15 1021 10 16.0934 0 0
3:53 am 03:53 Clear 60 15.6 15 -9.4 17 17 NW 8 13 30.13 1020 10 16.0934 0 0
4:53 am 04:53 Clear 52 11.1 17 -8.3 25 25 WNW 13 20 30.12 1020 10 16.0934 0 0
5:53 am 05:53 Clear 53 11.7 17 -8.3 24 24 NW 8 13 30.14 1021 10 16.0934 0 0
6:53 am 06:53 Sunny 52 11.1 17 -8.3 25 25 N 12 19 30.18 1022 10 16.0934 0 0
7:53 am 07:53 Sunny 57 13.9 16 -8.9 20 20 NNW 17 28 30.18 1022 10 16.0934 0 0
8:53 am 08:53 Sunny 61 16.1 17 -8.3 18 18 N 12 19 30.19 1023 10 16.0934 0 0
9:53 am 09:53 Sunny 66 18.9 17 -8.3 15 15 N 12 19 30.18 1022 10 16.0934 0 0
10:53 am 10:53 Sunny 65 18.3 18 -7.8 16 16 ESE 5 7 30.19 1022 10 16.0934 0 0
11:53 am 11:53 Sunny 70 21.1 18 -7.8 14 14 undefined N/A 30.16 1021 10 16.0934 0 0
12:53 pm 12:53 Sunny 73 22.8 15 -9.4 11 11 NNW 14 22 30.11 1020 10 16.0934 0 0
1:53 pm 13:53 Sunny 72 22.2 14 -10 11 11 NNW 16 26 30.11 1020 10 16.0934 0 0
2:53 pm 14:53 Sunny 73 22.8 16 -8.9 11 11 NNW 20 31 30.09 1019 10 16.0934 0 0
3:53 pm 15:53 Sunny 73 22.8 19 -7.2 13 13 N 17 28 30.09 1019 10 16.0934 0 0
4:53 pm 16:53 Sunny 71 21.7 23 -5 16 16 NNW 21 33 30.11 1020 10 16.0934 0 0
5:53 pm 17:53 Clear 69 20.6 26 -3.3 20 20 NNW 20 31 30.13 1020 10 16.0934 0 0
6:53 pm 18:53 Clear 68 20 26 -3.3 21 21 NNW 10 17 30.15 1021 10 16.0934 0 0
7:53 pm 19:53 Clear 68 20 29 -1.7 23 23 N 16 26 30.16 1021 10 16.0934 0 0
8:53 pm 20:53 Clear 67 19.4 29 -1.7 24 24 N 13 20 30.19 1022 10 16.0934 0 0
9:53 pm 21:53 Clear 67 19.4 30 -1.1 25 25 N 13 20 30.2 1023 10 16.0934 0 0
10:53 pm 22:53 Clear 67 19.4 31 -0.6 26 26 NNW 13 20 30.22 1023 10 16.0934 0 0
11:53 pm 23:53 Clear 65 18.3 32 0 29 29 NNW 20 31 30.22 1023 10 16.0934 0 0

Powered by AerisWeather